TimeMDT,TemperatureF,Dew PointF,Humidity,Sea Level PressureIn,VisibilityMPH,Wind Direction,Wind SpeedMPH,Gust SpeedMPH,PrecipitationIn,Events,Conditions,WindDirDegrees,DateUTC
12:53 AM,50.0,33.1,52,30.03,10.0,SSW,12.7,-,N/A,,Clear,210,2012-10-15 06:53:00
1:53 AM,48.0,32.0,54,30.02,10.0,SSW,11.5,-,N/A,,Clear,200,2012-10-15 07:53:00
2:53 AM,50.0,30.9,48,30.00,10.0,SSW,13.8,-,N/A,,Clear,210,2012-10-15 08:53:00
3:53 AM,48.9,30.9,50,29.97,10.0,SSW,15.0,-,N/A,,Partly Cloudy,210,2012-10-15 09:53:00
4:53 AM,48.9,30.0,48,29.96,10.0,SSW,15.0,-,N/A,,Partly Cloudy,210,2012-10-15 10:53:00
5:53 AM,48.9,28.9,46,29.96,10.0,SSW,12.7,-,N/A,,Partly Cloudy,200,2012-10-15 11:53:00
6:53 AM,48.9,28.0,44,29.96,10.0,SSW,15.0,-,N/A,,Mostly Cloudy,210,2012-10-15 12:53:00
7:53 AM,51.1,27.0,39,29.96,10.0,SSW,13.8,-,N/A,,Scattered Clouds,210,2012-10-15 13:53:00
8:53 AM,55.9,28.0,34,29.96,10.0,SSW,13.8,-,N/A,,Scattered Clouds,210,2012-10-15 14:53:00
9:53 AM,62.1,30.0,30,29.93,10.0,SW,9.2,-,N/A,,Scattered Clouds,220,2012-10-15 15:53:00
10:53 AM,66.0,27.0,23,29.90,10.0,SSW,6.9,-,N/A,,Scattered Clouds,200,2012-10-15 16:53:00
11:53 AM,70.0,26.1,19,29.86,10.0,South,5.8,-,N/A,,Partly Cloudy,170,2012-10-15 17:53:00
12:53 PM,73.0,24.1,16,29.82,10.0,SE,6.9,-,N/A,,Partly Cloudy,140,2012-10-15 18:53:00
1:53 PM,75.9,21.9,13,29.79,10.0,Calm,Calm,-,N/A,,Partly Cloudy,0,2012-10-15 19:53:00
2:53 PM,77.0,23.0,13,29.75,10.0,Variable,3.5,-,N/A,,Partly Cloudy,0,2012-10-15 20:53:00
3:53 PM,75.9,25.0,15,29.75,10.0,North,5.8,-,N/A,,Partly Cloudy,10,2012-10-15 21:53:00
4:53 PM,73.9,26.1,17,29.75,10.0,North,8.1,-,N/A,,Partly Cloudy,10,2012-10-15 22:53:00
5:53 PM,69.1,28.9,22,29.77,10.0,NNE,3.5,-,N/A,,Scattered Clouds,20,2012-10-15 23:53:00
6:53 PM,64.9,27.0,24,29.78,10.0,SSE,6.9,-,N/A,,Scattered Clouds,160,2012-10-16 00:53:00
7:53 PM,66.0,26.1,22,29.77,10.0,Calm,Calm,-,N/A,,Mostly Cloudy,0,2012-10-16 01:53:00
8:53 PM,66.9,21.9,18,29.77,10.0,NW,18.4,-,N/A,,Mostly Cloudy,310,2012-10-16 02:53:00
9:04 PM,64.4,24.8,22,29.95,10.0,WNW,13.8,-,N/A,,Mostly Cloudy,290,2012-10-16 03:04:00
9:53 PM,66.9,19.9,17,29.75,10.0,WNW,20.7,26.5,N/A,,Mostly Cloudy,290,2012-10-16 03:53:00
10:53 PM,64.9,21.0,19,29.75,10.0,West,18.4,26.5,N/A,,Mostly Cloudy,280,2012-10-16 04:53:00
11:53 PM,62.1,24.1,23,29.73,10.0,West,13.8,-,N/A,,Scattered Clouds,260,2012-10-16 05:53:00